Location: Shell Point
(30.0571°N, 84.2896°W)
Time: 23:37:33
(UTC-04:00)

Daily predictions for brighter satellites

Satellite Brightness Start Highest point End
(mag) Time Altitude Azimuth Time Altitude Azimuth Time Altitude Azimuth
ATLAS 2A CENTAUR R/B 3.8 20:44:01 10° W 20:50:04 76° S 21:15:26 10° E
Cosmos 2082 3.7 20:58:20 10° SSW 21:03:55 80° ESE 21:09:33 10° NNE
Cosmos 1954 Rocket 4.0 21:02:30 10° S 21:07:40 70° ESE 21:12:50 10° NNE
Cosmos 614 Rocket 4.3 21:04:34 10° S 21:09:30 45° ESE 21:14:27 10° NNE
Cosmos 2297 Rocket 2.2 21:03:56 10° SSW 21:09:34 85° ESE 21:15:14 10° NNE
Tiangong 1 4.0 21:15:26 10° NW 21:16:49 13° NNW 21:18:12 10° N
Cosmos 1378 3.8 21:13:48 10° SSW 21:17:30 60° W 21:21:14 10° N
USA 234 3.7 21:13:46 10° ENE 21:19:40 36° SE 21:25:33 10° S
Cosmos 2221 4.4 21:20:15 10° NE 21:22:48 15° ENE 21:25:09 11° ESE
Sakura Rocket 4.5 21:14:00 10° WSW 21:23:13 68° SSE 21:29:52 10° E
Milstar 3 Cent rocket 3.2 21:18:05 10° W 21:24:05 77° S 21:36:15 10° ESE
ATLAS 5 CENTAUR R/B 1.6 21:21:51 10° SSW 21:26:21 74° ESE 21:31:10 10° NNE
Cosmos 1939 Rocket 3.6 21:26:00 11° SE 21:29:33 37° ENE 21:33:17 10° N
YAOGAN 6 4.1 21:27:40 13° ESE 21:29:56 21° ENE 21:32:44 10° NNE
Cosmos 1980 3.7 21:28:50 10° NNW 21:34:31 76° ENE 21:40:07 10° SSE
Cosmos 1340 Rocket 2.9 21:31:32 10° S 21:35:26 56° E 21:39:24 10° NNE
Cosmos 1184 Rocket 2.7 21:32:30 10° S 21:35:48 67° E 21:39:08 10° NNE
NOSS 0 Rocket 4.0 21:29:53 10° NNW 21:36:08 83° WSW 21:42:21 10° SSE
Cosmos 1741 Rocket 4.1 21:33:01 10° S 21:38:13 57° ESE 21:43:25 10° NNE
ATLAS 2AS CENTAUR R/B 4.5 21:34:35 10° NW 21:41:03 30° WSW 21:47:04 10° SSW
Meteor 2-15 4.4 21:35:28 10° S 21:41:30 87° E 21:47:35 10° N
Palapa 6 Rocket 4.0 21:36:42 10° WSW 21:41:41 35° S 21:44:33 18° SE
SEDSat Delta rocket 3.3 21:38:46 10° W 21:43:13 52° SSW 21:45:59 19° SE
Cosmos 2237 Rocket 2.2 21:38:58 10° NNW 21:44:37 86° ENE 21:49:44 13° SSE
NOSS 3-4 (A) 4.1 21:37:47 10° NNW 21:44:51 57° ENE 21:50:45 17° SE
NOSS 3-4 (C) 4.1 21:37:53 10° NNW 21:44:57 57° ENE 21:50:49 17° SE
USA 186 2.6 21:43:05 10° SSW 21:45:20 33° W 21:47:29 10° NNW
Spot 2 Rocket 4.2 21:40:31 10° S 21:45:24 53° W 21:50:21 10° NNW
SL-8 R/B 3.7 21:41:26 10° NW 21:46:13 81° NE 21:49:32 20° SE
Resurs 01 Rocket 3.1 21:45:59 10° SSW 21:50:00 35° W 21:54:02 10° NNW
Cosmos 2227 Rocket 4.4 21:48:26 10° WSW 21:53:17 29° WNW 21:58:09 10° N
Cosmos 1674 3.1 21:55:25 23° SSE 21:57:20 41° E 22:00:53 10° NNE
Delta 2 Rocket 4.2 21:52:12 10° SW 21:57:43 57° SSE 22:03:24 10° ENE
H-2A ROCKET BODY 2.3 21:57:16 10° SSW 21:59:41 28° SE 22:05:31 10° E
Cosmos 2084 4.1 21:56:33 10° SW 22:00:33 53° WNW 22:04:24 10° NNE
Atlas Centaur 2 0.8 21:58:14 10° W 22:01:56 84° S 22:03:33 30° ESE
ARGOS 4.4 22:01:31 20° ESE 22:03:43 26° ENE 22:08:07 10° NNE
Aureole 2 Rocket 4.1 22:00:25 10° NW 22:04:03 35° W 22:07:14 11° SSW
Helios 1A 3.0 22:01:53 17° S 22:05:01 77° W 22:09:10 10° NNW
Helios 1B rocket 3.4 22:01:42 10° N 22:05:42 50° WNW 22:09:41 10° SSW
Cosmos 1908 4.0 22:03:56 10° NNE 22:07:28 33° E 22:08:10 31° ESE
Cosmos 2100 Rocket 4.4 22:02:29 10° N 22:08:34 47° E 22:11:58 25° SE
SL-16 R/B 2.4 22:03:19 10° N 22:08:52 54° ENE 22:11:44 27° SE
SAR-Lupe-4 3.4 22:07:57 30° SSE 22:09:36 84° ENE 22:13:11 10° N
Envisat 3.7 22:05:03 10° S 22:09:59 52° W 22:14:56 10° NNW
KORONAS-FOTON 4.2 22:10:27 36° ESE 22:11:11 40° E 22:14:45 10° NNE
Meteor 1-29 4.3 22:11:17 10° N 22:14:32 41° WNW 22:17:47 10° SSW
Cosmos 2208 Rocket 4.4 22:14:49 10° N 22:19:59 49° ENE 22:21:57 33° ESE
Cosmos 2173 Rocket 4.2 22:14:03 10° N 22:20:05 53° E 22:23:00 30° SE
Spot 1 4.4 22:17:43 21° S 22:20:12 56° WSW 22:24:17 10° NNW
Cosmos 2219 Rocket 4.4 22:20:34 10° NW 22:24:28 19° W 22:28:23 10° SW
SAR-Lupe-1 4.4 22:28:05 38° SSW 22:29:12 59° W 22:32:45 10° NNW
CZ-4B DEB 4.0 22:28:55 27° SW 22:29:42 33° W 22:32:26 10° NNW
Cosmos 2333 Rocket 4.2 22:26:38 10° NW 22:30:49 22° W 22:34:59 10° SSW
Cosmos 1356 Rocket 3.8 22:29:06 21° SSW 22:31:52 66° W 22:36:07 10° N
Cosmos 1570 Rocket 3.9 22:27:55 10° NNW 22:33:13 75° ENE 22:34:58 43° SSE
NOAA 11 4.1 22:31:29 36° SSE 22:33:45 78° ENE 22:39:11 10° N
Skynet4D Del rocket 4.2 22:28:21 10° W 22:34:03 50° SSW 22:36:05 37° SE
Cosmos 1242 Rocket 2.4 22:31:03 10° N 22:34:45 72° E 22:34:52 71° E
Cosmos 2227 4.3 22:32:05 10° SSW 22:37:49 81° WNW 22:43:33 10° NNE
SPOT 5 3.1 22:37:41 44° ESE 22:38:29 49° ENE 22:43:16 10° N
Cosmos 1408 Rocket 3.4 22:39:20 48° S 22:40:30 88° W 22:44:49 10° N
Cosmos 1076 Rocket 4.4 22:38:27 18° SSW 22:41:29 48° W 22:45:43 10° N
GPS 2-05 Rocket1 4.0 22:38:33 10° WSW 22:40:21 31° WSW 22:40:21 31° WSW
Cosmos 1802 Rocket 3.9 22:35:37 10° N 22:41:44 71° E 22:43:58 41° SSE
Meteor 2-17 Rocket 4.4 22:36:55 10° N 22:43:06 89° WSW 22:45:54 35° S
Lacrosse 5 3.6 22:41:29 10° N 22:45:14 20° NE 22:46:42 18° ENE
MetOp-B 4.2 22:56:13 46° S 22:57:47 72° WSW 23:03:08 10° NNW
RESURS DK-1 3.6 22:55:00 10° N 22:58:06 31° NE 22:58:06 31° NE
EO 1 Delta rocket 3.9 22:59:49 62° E 22:59:53 62° E 23:04:26 10° N
Cosmos 2221 4.1 22:56:30 10° NNW 23:00:23 31° W 23:02:02 24° SW
Cosmos 1500 Rocket 4.4 23:01:40 39° NE 23:01:40 39° NE 23:04:50 10° NNE
Cosmos 2151 4.4 23:02:32 27° NE 23:02:32 27° NE 23:04:53 10° NNE
SL-14 R/B 3.7 23:02:08 56° NNE 23:02:08 56° NNE 23:05:19 10° N
USA 234 4.1 22:56:25 10° NNE 23:02:39 49° NW 23:08:52 10° WSW
ERS-1 Rocket 3.9 23:01:44 31° SW 23:03:29 43° W 23:08:16 10° NNW
Cosmos 468 Rocket 4.0 22:58:44 10° N 23:03:48 59° ENE 23:03:53 59° ENE
Cosmos 2263 Rocket 2.4 23:04:26 51° E 23:04:26 51° E 23:09:16 10° NNE
Meteor 2-2 Rocket 4.2 23:00:54 10° N 23:06:41 69° E 23:07:23 63° ESE
Cosmos 1328 4.3 23:09:20 57° NNW 23:09:20 57° NNW 23:12:38 10° N
H-2A R/B 1.9 23:10:15 73° ESE 23:10:34 75° ENE 23:15:57 10° N
Cosmos 2016 Rocket 4.0 23:04:41 10° N 23:10:55 78° W 23:12:32 52° SSW
Cosmos 1300 3.9 23:07:51 10° N 23:10:18 37° NNE 23:10:18 37° NNE
Meteor 2-10 4.2 23:06:16 10° N 23:11:53 63° E 23:12:04 63° E
Cosmos 1726 3.3 23:10:19 10° N 23:12:45 40° NNW 23:12:45 40° NNW
Sakura Rocket 3.7 23:10:18 10° W 23:17:59 80° S 23:18:33 72° SE
Terra 2.8 23:19:38 36° NE 23:19:38 36° NE 23:23:09 10° N
Cosmos 1818 4.3 23:20:37 10° NW 23:25:39 40° WSW 23:26:01 40° WSW
SL-08 RB Rocket 4.4 23:28:02 47° W 23:28:02 47° W 23:32:11 10° NNW
Cosmos 1328 Rocket 4.3 23:25:36 10° N 23:28:53 49° NNW 23:28:53 49° NNW
H-2A R/B 3.6 23:34:10 29° NNE 23:34:10 29° NNE 23:36:34 10° N
SL-19 R/B 4.3 23:29:34 10° NNE 23:34:17 66° NE 23:34:17 66° NE
Cosmos 2233 Rocket 3.9 23:29:42 10° N 23:35:39 67° ENE 23:35:39 67° ENE
Cosmos 332 Rocket 4.2 23:31:01 10° NNW 23:35:08 61° NW 23:35:08 61° NW
Cosmos 1603 3.7 23:30:24 10° NNW 23:35:50 75° W 23:35:50 75° W
Cosmos 2228 Rocket 3.9 23:33:25 10° NNW 23:37:01 50° NW 23:37:01 50° NW
Cosmos 1151 Rocket 4.3 23:35:01 10° N 23:37:42 37° N 23:37:42 37° N
Delta 2 Rocket 4.5 23:34:57 10° W 23:40:41 61° NNW 23:41:58 49° NE
ARGOS 4.4 23:43:02 30° WSW 23:43:45 31° W 23:48:30 10° NW
Cosmos 1943 3.6 23:46:37 10° NNW 23:51:21 58° NNE 23:51:21 58° NNE
SL-16 R/B 4.4 23:49:23 10° WNW 23:52:24 15° W 23:53:38 14° WSW
